TV
NORAD ID: 23528
Int'l Code: 1995-013A
Perigee: 36,063.6 km
Apogee: 36,258.2 km
Inclination: 3.1 °
Period: 1,454.9 minutes
Semi major axis: 42531 km
Launch date: March 22, 1995
Source: International Telecommunications Satellite Organiz (ITSO)
Comments: 42 C-band, 24 Ku-band; broadcasting, business services, direct-to-home TV broadcasting, telecommunications, VSATnetworks; Atlantic Ocean region.
Two Line Element Set (TLE):
1 23528U 95013A 13140.58936495 -.00000230 00000-0 00000+0 0 5975
2 23528 003.0646 068.4792 0022867 350.8052 008.8686 00.98976212 66344
Source: AFSPC
NASA's NSSDC Master Catalog entry for INTELSAT 705